Phoenix, AZ

10:15 AM MST on March 25, 2017 (GMT -0700)
Phoenix Sky Harbor International

Weather History for KPHX - July, 2013

Change the Weather History Date:

Monday, July 29, 2013

  Actual Average Record
Temperature  
Mean Temperature 96 °F 94 °F  
Max Temperature 107 °F 105 °F 115 °F (1995)
Min Temperature 85 °F 84 °F 68 °F (1913)
Degree Days  
Heating Degree Days 0 0  
Month to date heating degree days 0 0  
Since 1 June heating degree days 0 0  
Since 1 July heating degree days 0 0  
Cooling Degree Days 31 30  
Month to date cooling degree days 892 867  
Year to date cooling degree days 2892 2527  
Since 1 June cooling degree days 1794 1641  
Growing Degree Days 45 (Base 50)    
Moisture  
Dew Point 47 °F    
Average Humidity 22    
Maximum Humidity 32    
Minimum Humidity 12    
Precipitation  
Precipitation 0.00 in 0.04 in 2.05 in (1917)
Month to date precipitation 1.77 0.97  
Year to date precipitation 4.38 4.20  
Snow  
Snow 0.00 in - - ()
Month to date snowfall 0.0  
Year to date snowfall 0.0  
Since 1 July snowfall 0.0  
Snow Depth 0.00 in    
Sea Level Pressure  
Sea Level Pressure 29.81 in    
Wind  
Wind Speed 8 mph (South)    
Max Wind Speed 16 mph    
Max Gust Speed 20 mph    
Visibility 10 miles    
Events      
T = Trace of Precipitation, MM = Missing Value Source: NWS Daily Summary

Daily Weather History Graph

Daily Weather History Graph

Search for Another Location

Airport or City:

Trip Planner

Search our weather history database for the weather conditions in past years. The results will help you decide how hot, cold, wet, or windy it might be!

Date:

Astronomy

Jul. 29, 2013 Rise Set
Actual Time 5:38 AM MST 7:29 PM MST
Civil Twilight 5:11 AM MST 7:57 PM MST
Nautical Twilight 4:38 AM MST 8:30 PM MST
Astronomical Twilight 4:03 AM MST 9:05 PM MST
Moon 11:57 PM MST (7/29) 12:58 PM MST (7/29)
Length of Visible Light 14h 45m
Length of Day
13h 51m
Waning Gibbous, 50% of the Moon is Illuminated
Jul 29
Waning Gibbous
Aug 6
New
Aug 14
First Quarter
Aug 20
Full
Aug 28
Last Quarter

Hourly Weather History & Observations

Time (MST) Temp. Heat Index Dew Point Humidity Pressure Visibility Wind Dir Wind Speed Gust Speed Precip Events Conditions
12:51 AM 93.9 °F - 50.0 °F 22% 29.71 in 10.0 mi ESE 3.5 mph - N/A   Clear
1:51 AM 93.0 °F - 50.0 °F 23% 29.73 in 10.0 mi NNE 6.9 mph - N/A   Partly Cloudy
2:51 AM 91.0 °F - 51.1 °F 25% 29.74 in 10.0 mi East 3.5 mph - N/A   Partly Cloudy
3:51 AM 88.0 °F 85.7 °F 53.1 °F 30% 29.75 in 10.0 mi East 8.1 mph - N/A   Clear
4:51 AM 87.1 °F 84.9 °F 53.1 °F 31% 29.77 in 10.0 mi East 6.9 mph - N/A   Partly Cloudy
5:51 AM 86.0 °F 84.0 °F 53.1 °F 32% 29.80 in 10.0 mi East 6.9 mph - N/A   Partly Cloudy
6:51 AM 87.1 °F 84.9 °F 53.1 °F 31% 29.81 in 10.0 mi East 9.2 mph - N/A   Partly Cloudy
7:51 AM 89.1 °F - 52.0 °F 28% 29.83 in 10.0 mi ESE 11.5 mph - N/A   Partly Cloudy
8:51 AM 91.9 °F - 50.0 °F 24% 29.85 in 10.0 mi SE 9.2 mph - N/A   Partly Cloudy
9:51 AM 97.0 °F - 45.0 °F 17% 29.85 in 10.0 mi SSE 9.2 mph - N/A   Partly Cloudy
10:51 AM 99.0 °F - 41.0 °F 14% 29.86 in 10.0 mi Variable 3.5 mph - N/A   Partly Cloudy
11:51 AM 102.0 °F - 43.0 °F 13% 29.85 in 10.0 mi South 9.2 mph - N/A   Partly Cloudy
12:51 PM 102.9 °F - 42.1 °F 13% 29.84 in 10.0 mi SW 8.1 mph - N/A   Partly Cloudy
1:51 PM 104.0 °F - 41.0 °F 12% 29.83 in 10.0 mi Variable 6.9 mph - N/A   Partly Cloudy
2:51 PM 105.1 °F - 42.1 °F 12% 29.81 in 10.0 mi Variable 6.9 mph - N/A   Partly Cloudy
3:51 PM 106.0 °F - 43.0 °F 12% 29.79 in 10.0 mi SSW 4.6 mph - N/A   Scattered Clouds
4:51 PM 105.1 °F - 43.0 °F 12% 29.78 in 10.0 mi WSW 8.1 mph - N/A   Partly Cloudy
5:51 PM 106.0 °F - 43.0 °F 12% 29.77 in 10.0 mi West 11.5 mph - N/A   Partly Cloudy
6:51 PM 104.0 °F - 45.0 °F 14% 29.77 in 10.0 mi NNW 9.2 mph - N/A   Partly Cloudy
7:51 PM 102.9 °F - 45.0 °F 14% 29.79 in 10.0 mi West 11.5 mph - N/A   Partly Cloudy
8:51 PM 100.9 °F - 46.0 °F 15% 29.82 in 10.0 mi West 9.2 mph - N/A   Clear
9:51 PM 97.0 °F - 48.0 °F 19% 29.84 in 10.0 mi WSW 5.8 mph - N/A   Clear
10:51 PM 98.1 °F - 46.9 °F 18% 29.86 in 10.0 mi WNW 8.1 mph - N/A   Clear
11:51 PM 97.0 °F - 46.9 °F 18% 29.86 in 10.0 mi West 11.5 mph - N/A   Clear